Accueil
METAR-TAF:

METAR-TAF

Aéroports :

Lismore, Australie

latitude: 28-49-41S, longitude: 153-15-36E, altitude: 11 m

Observation

Le bulletin a été fait il y a 1 heure et 1 minutes, à 22:00 UTC
Vent 4 kt de nord
Température 9°C
Humidité 87%
Pression 1026 hPa
Visibilité 10 km ou plus
Nuages fragmentés à une hauteur de 3500 ft

METAR: YLIS 202200Z AUTO 01004KT 9999 // BKN035 09/07 Q1026

Heure: 09:01 (23:01 UTC)


TAF: absent

Observations et prévisions météorologiques de plus de 4000 aéroports (messages METAR et TAF).

Les stations disponibles sont représentées par des disques jaunes et rouges sur la carte.

Passer la souris dessus pour voir le nom de la station.

Cliquer dessus pour voir les observations et prévisions météorologiques.

Pour changer de carte: cliquez sur les boutons verts avec une croix noire pour zoomer, sur le bouton vert avec un tiret pour effectuer un zoom arrière, ou sur les flèches vertes pour les cartes adjacentes.


METAR-TAF: